Theta_e
326 328 329 329 330 331 330 329 329 330 331 331 330 330 330 330 333 332 332 331 330 329 329 327 326 326 326 328 328 329 327 327 325 324 322 324 323 321 321 321 321 321 322 317 318 316 314 312 313 317 320 318 319 320 321 324 324 324 323 321 319 318 316
327 327 330 331 330 331 330 330 330 330 330 331 331 331 332 332 333 332 331 330 330 329 330 327 326 327 326 326 326 327 326 326 325 325 324 324 322 321 321 317 320 319 318 318 319 316 311 311 309 312 310 312 315 317 321 322 323 323 322 320 319 317 317
326 326 329 329 329 329 329 329 329 328 328 329 330 330 331 332 332 332 331 329 328 329 329 327 327 326 326 326 326 327 326 326 325 325 325 324 323 322 322 320 317 316 316 316 315 314 315 313 312 312 309 310 310 313 318 319 320 321 320 319 318 317 315
325 326 327 327 328 328 327 327 328 327 326 328 329 329 330 331 330 330 329 328 328 329 329 328 327 327 326 326 326 326 326 325 325 324 323 324 323 322 321 322 320 320 317 315 315 315 314 310 310 308 308 311 312 311 314 317 319 319 320 318 317 315 314
326 327 327 327 327 327 327 326 325 324 325 326 328 328 329 329 329 330 328 327 328 328 328 328 327 327 327 327 326 326 326 325 325 325 323 323 322 322 321 320 320 320 318 318 318 317 316 314 311 308 308 309 311 309 312 310 315 318 318 317 316 314 313
327 327 327 327 327 326 325 324 323 324 324 325 326 328 328 329 329 327 327 327 327 328 328 328 327 328 327 326 326 326 325 324 325 325 324 324 323 323 322 319 320 320 319 319 320 318 316 315 311 309 309 310 307 308 309 309 307 311 314 314 314 313 312
327 327 326 325 325 325 325 324 324 324 323 325 326 327 328 327 328 328 328 327 328 327 327 327 327 327 327 326 326 326 325 325 325 324 324 324 324 323 322 321 320 319 319 321 320 319 317 314 310 310 309 308 308 308 307 306 308 309 306 307 310 311 311
327 326 326 326 325 324 324 324 323 323 324 325 327 328 327 326 328 328 328 327 326 326 326 326 327 326 326 326 326 326 325 324 324 324 323 323 324 322 321 322 321 319 320 321 321 320 319 316 314 311 310 306 305 306 306 305 307 308 305 303 307 308 309
327 326 325 324 324 325 324 324 323 323 324 326 327 328 326 328 327 328 328 326 326 326 326 326 326 325 325 325 325 326 326 327 323 322 322 324 324 323 323 321 321 321 321 321 321 321 320 319 316 313 311 309 305 302 303 303 302 301 306 302 304 306 307
326 325 325 323 324 325 325 324 324 324 325 326 327 327 327 328 328 327 327 326 326 326 325 326 325 324 324 325 325 325 326 324 324 323 322 323 324 323 322 322 322 321 321 322 322 322 322 321 317 313 312 310 308 305 301 301 299 298 302 302 301 302 306
326 326 325 324 324 324 324 325 325 325 325 326 327 328 327 327 328 330 327 326 326 326 326 326 325 323 323 323 324 324 324 324 323 322 322 323 323 323 322 322 320 320 320 322 322 322 322 321 319 313 311 310 309 306 303 302 299 299 301 301 301 301 304
325 326 326 326 325 325 324 324 325 326 325 325 326 326 326 326 327 327 327 327 326 326 326 325 324 323 322 322 323 323 322 322 322 321 321 323 322 323 322 322 319 319 320 321 322 322 322 321 321 318 312 309 308 307 305 302 298 299 303 301 301 304 304
325 327 327 326 325 325 325 325 325 324 324 324 324 324 323 325 325 326 327 326 325 325 325 324 323 323 322 322 322 322 322 322 322 321 321 322 324 323 322 321 320 320 320 320 321 322 322 321 320 320 317 310 307 305 304 303 300 300 302 303 303 303 304
323 323 325 327 326 325 325 324 324 324 322 321 322 321 322 324 324 326 326 326 325 324 324 323 323 323 322 321 321 321 321 322 321 320 321 321 322 322 322 321 321 320 320 321 322 323 323 321 321 319 318 314 310 306 304 301 299 299 302 304 304 303 304
324 323 323 325 326 325 324 324 323 322 321 321 321 321 322 323 324 324 325 325 324 324 324 323 322 322 322 321 320 322 322 321 320 319 319 320 320 322 320 321 321 320 321 322 321 323 323 322 321 320 317 316 313 308 305 302 299 300 300 302 302 303 303
324 324 323 323 325 325 323 322 323 322 321 320 320 321 321 322 322 323 323 323 324 324 324 323 322 321 321 321 321 321 322 321 320 319 319 319 321 321 321 321 321 321 322 321 321 322 322 322 322 321 319 317 315 311 306 303 301 300 301 301 302 302 302
324 323 323 323 323 323 323 323 322 321 321 320 320 319 320 320 320 320 321 321 322 323 323 323 322 323 323 321 321 321 321 321 321 320 320 320 321 321 322 321 321 321 321 321 320 320 319 319 319 319 317 315 314 310 307 304 304 302 301 301 301 303 302
322 322 322 322 322 322 322 321 321 320 319 319 319 317 316 317 318 319 320 321 321 321 321 322 323 322 323 322 322 321 321 321 320 320 320 320 324 322 322 322 321 321 320 320 318 318 317 316 317 316 314 311 311 309 309 305 303 304 302 302 302 302 303
322 323 322 322 321 321 321 320 319 319 319 318 316 315 316 318 319 318 319 320 320 318 317 320 322 322 322 323 322 322 322 321 321 320 320 321 323 323 322 322 321 321 320 320 318 316 315 315 315 313 313 312 308 307 306 304 304 304 304 303 303 302 301
322 322 322 321 322 321 320 319 319 319 318 316 315 315 316 315 315 315 313 313 312 311 310 311 312 314 317 320 321 322 322 321 320 319 320 321 323 323 322 322 321 321 321 319 318 317 315 314 315 312 313 311 307 307 307 304 305 304 302 302 301 303 303
321 322 322 322 321 321 320 318 318 317 316 314 314 314 314 314 312 311 309 308 307 307 307 306 306 308 313 316 317 318 320 320 319 318 317 318 321 322 322 322 322 321 320 319 319 317 315 315 313 311 310 311 306 307 307 305 305 304 303 302 302 302 300
320 321 322 322 322 321 320 318 317 315 314 314 315 314 313 311 309 307 306 306 304 304 303 302 302 302 309 314 314 314 316 317 317 316 317 319 319 320 320 318 317 318 322 322 315 314 314 313 313 310 309 308 305 307 306 304 305 304 303 303 302 303 301
319 321 321 321 321 321 319 318 316 314 313 314 313 312 310 309 308 306 304 302 302 301 300 300 299 297 300 309 313 314 313 313 315 316 317 317 316 315 315 314 316 318 315 313 309 306 305 306 310 312 311 310 308 308 307 306 305 305 305 303 303 303 301
319 319 320 320 320 320 319 317 314 313 313 313 311 310 308 306 305 304 303 301 299 298 297 297 294 294 295 304 312 312 312 311 313 315 316 316 314 310 308 309 309 311 309 307 304 300 300 300 301 302 305 308 311 310 308 307 306 306 304 305 303 304 302
318 317 318 319 319 318 316 315 313 313 313 311 309 307 305 303 302 301 300 299 297 297 296 295 292 294 295 298 307 313 313 313 312 312 313 312 309 309 311 310 309 311 312 309 304 303 301 297 296 296 296 296 295 296 299 306 304 303 303 305 304 304 304
318 319 317 317 318 317 315 316 313 313 311 309 306 304 301 300 299 298 298 297 295 295 294 293 292 294 296 299 304 309 313 313 312 311 310 309 310 310 308 306 303 302 304 311 311 307 303 303 301 301 302 302 301 298 295 296 299 305 303 302 302 303 303
318 318 317 315 316 315 315 315 313 311 308 305 302 300 299 297 297 296 296 295 294 294 294 294 292 295 297 300 303 307 315 315 314 312 312 312 310 307 305 302 301 299 299 301 302 308 313 313 312 313 313 311 308 303 298 297 296 297 302 306 305 305 305
309 314 315 315 314 313 313 311 308 307 304 302 300 298 297 296 295 295 294 294 295 294 294 293 293 295 297 301 303 307 314 314 312 310 307 304 301 299 298 297 296 296 296 297 299 303 307 307 307 307 308 309 307 303 300 299 298 298 299 300 300 301 301
305 304 308 310 309 309 308 307 305 304 302 300 299 298 296 295 294 293 293 294 295 294 294 292 293 295 299 301 304 310 309 307 304 302 301 299 298 297 297 296 295 295 295 295 295 294 297 300 300 299 299 301 304 302 300 300 295 295 297 297 297 297 298
303 303 304 304 304 304 304 304 304 303 301 300 298 297 296 296 295 294 294 293 293 292 293 292 292 296 299 301 303 306 303 301 299 298 298 298 298 298 297 295 294 294 293 293 293 292 293 296 296 296 295 295 298 298 296 297 295 294 293 293 293 294 294
301 302 303 302 303 303 303 303 303 303 301 300 299 298 297 296 295 295 294 293 293 292 292 293 292 294 297 299 303 304 301 299 297 296 296 296 296 297 300 301 299 293 293 293 291 292 293 296 295 295 294 294 295 294 293 294 297 296 295 295 295 295 295
301 301 301 302 303 303 302 302 303 303 302 301 300 299 298 296 295 295 295 295 298 294 293 294 292 292 294 298 302 303 301 299 297 296 295 294 295 294 294 295 297 295 294 292 290 291 292 295 295 295 293 293 292 292 292 292 294 294 295 296 297 298 298
301 300 300 301 302 303 303 303 302 302 301 301 299 298 296 296 295 295 296 296 296 296 295 294 293 292 293 294 298 304 303 300 297 296 296 296 295 294 294 293 294 290 290 290 290 290 290 292 294 293 293 293 292 292 292 292 294 293 293 293 294 295 295
300 300 300 300 301 301 303 303 303 301 300 299 298 297 297 296 295 295 295 296 296 296 297 295 294 291 292 293 294 297 301 301 300 299 297 296 295 294 294 293 292 292 290 290 290 290 290 291 293 294 293 293 293 293 292 292 293 294 292 294 294 295 296
300 300 300 300 299 299 301 302 303 302 300 299 298 297 297 296 296 296 296 296 296 296 298 297 295 293 291 291 292 294 297 297 298 298 297 296 295 295 294 293 293 291 290 290 290 290 290 291 292 295 292 290 289 290 293 293 292 292 293 294 294 295 296
299 299 299 299 298 298 299 299 300 302 301 300 298 297 297 297 296 296 296 296 297 297 297 297 294 295 292 291 291 291 293 295 294 299 297 295 295 295 295 294 295 292 290 290 290 290 291 291 293 291 289 289 289 289 291 293 293 295 295 295 295 295 294
298 298 298 298 298 297 298 298 299 299 300 300 299 298 297 297 296 296 295 295 296 296 296 296 294 293 293 291 291 290 290 291 293 297 297 296 295 295 294 294 293 290 290 291 291 291 291 291 292 290 290 290 290 291 294 294 294 294 293 292 293 292 292
Wind_Speed
8 8 7 6 5 4 5 5 5 5 5 5 6 4 5 5 5 6 6 5 5 5 6 7 7 6 5 5 6 6 5 6 8 9 8 7 10 6 1 2 0 4 7 3 4 5 6 7 2 1 0 0 2 2 5 6 6 6 6 5 5 4 4
6 6 5 5 6 5 6 4 5 5 5 5 5 6 8 8 7 6 5 5 5 5 6 5 5 6 8 8 7 7 7 6 7 6 7 8 6 6 4 1 4 5 3 3 5 4 4 6 2 3 2 3 1 1 5 3 5 6 6 6 5 5 4
7 6 6 7 6 6 7 6 5 5 5 5 5 5 6 6 6 5 5 6 6 5 5 5 6 6 6 7 8 8 7 7 6 6 8 7 6 5 4 5 4 4 4 3 3 3 3 2 7 7 4 6 5 3 4 4 5 5 6 6 5 5 4
9 9 8 8 7 6 7 6 6 6 5 6 5 5 5 5 3 3 5 5 5 5 5 4 6 7 7 7 7 7 7 7 6 7 5 5 6 6 4 7 7 9 8 5 7 4 5 4 5 3 3 5 7 6 4 4 6 5 6 5 5 5 5
9 9 10 9 8 8 8 7 6 5 5 5 5 5 6 5 5 4 3 4 6 6 7 6 6 6 6 6 6 7 6 5 5 6 6 7 6 5 5 5 7 6 5 7 7 7 7 6 8 7 6 4 5 2 3 3 3 7 6 5 5 5 5
8 9 9 9 8 8 7 7 6 7 6 5 5 6 7 7 7 6 6 7 7 7 7 7 6 6 7 6 7 7 6 7 7 8 7 8 7 7 6 3 5 5 5 5 7 7 5 6 7 8 3 4 6 5 3 5 3 2 2 3 5 5 5
7 8 8 9 8 7 7 8 8 8 7 7 6 7 6 7 7 7 8 9 7 6 6 6 6 5 6 6 7 6 7 7 6 7 7 7 6 5 5 5 5 5 5 6 7 7 7 7 6 9 7 2 4 6 2 2 3 5 1 2 2 2 2
6 7 7 7 8 8 7 8 7 6 7 6 7 5 7 7 5 5 7 7 6 6 5 5 5 5 5 5 5 4 5 6 6 6 6 7 7 6 5 6 6 4 5 6 7 6 7 8 8 7 9 9 3 2 3 2 4 4 6 2 2 1 0
5 5 5 6 6 7 8 7 7 6 6 6 4 5 8 9 9 7 7 6 6 6 5 5 5 5 6 6 5 4 5 3 6 6 6 6 6 6 6 4 5 5 4 6 6 6 7 7 7 6 7 8 9 5 2 5 3 1 3 4 1 2 3
5 6 7 7 7 6 6 6 7 6 5 5 6 4 8 8 9 8 6 7 6 5 5 4 4 4 5 6 5 5 6 4 6 6 6 6 6 6 5 6 6 6 5 4 4 5 5 6 6 7 7 9 8 8 5 6 3 4 4 2 5 4 5
6 6 5 7 6 6 5 5 5 6 6 6 6 5 6 8 8 9 8 7 6 5 6 4 3 3 4 5 6 5 5 6 6 5 5 6 5 5 4 4 3 5 4 5 5 4 5 6 7 7 6 5 7 10 6 8 5 3 6 4 2 4 5
7 6 5 6 6 7 7 5 6 6 6 5 6 6 7 7 8 9 8 7 6 7 5 4 4 4 4 5 5 5 5 6 6 6 5 5 5 5 5 5 3 3 4 5 4 3 4 5 5 6 5 5 4 3 8 6 5 4 5 8 5 3 7
7 6 6 7 7 7 6 6 6 6 7 6 6 7 7 7 8 9 9 9 8 6 6 5 5 5 5 4 5 5 4 5 5 6 6 5 5 5 5 5 4 5 4 4 4 4 4 4 4 5 6 6 4 4 3 6 8 8 6 6 6 5 5
2 8 6 6 7 7 6 6 6 6 5 6 7 7 7 8 8 9 9 9 9 7 7 5 5 5 5 4 4 4 4 4 5 5 5 5 4 5 5 5 4 4 4 5 5 5 4 5 4 5 5 5 6 5 6 3 5 2 1 1 3 4 6
6 0 8 6 6 7 7 7 6 6 6 6 6 7 7 7 8 8 9 9 8 8 7 6 6 6 6 5 5 4 5 5 4 4 4 5 3 4 4 4 4 3 4 5 4 5 5 5 6 6 5 6 6 6 6 5 4 6 7 1 3 3 4
8 6 2 8 6 8 8 7 7 8 6 6 4 6 7 7 8 8 8 8 9 8 8 7 6 6 6 7 7 6 6 6 5 6 6 5 5 4 4 5 5 4 3 4 4 5 4 5 5 6 6 5 6 6 6 6 6 6 8 5 3 5 6
4 7 3 7 9 9 9 8 7 8 7 6 6 5 5 6 5 6 7 7 8 8 7 7 6 6 6 7 7 7 7 6 6 6 6 6 6 6 5 5 5 5 4 5 5 4 3 4 5 5 5 5 5 6 7 6 7 8 6 7 5 8 7
4 4 2 6 8 8 7 7 6 7 7 7 6 5 4 4 4 5 6 6 6 6 7 7 7 6 5 6 6 6 6 6 6 5 5 6 6 7 6 6 6 5 6 6 4 4 3 4 4 4 5 5 5 5 4 7 5 5 7 9 6 3 4
8 6 5 2 9 4 7 6 6 5 6 7 6 6 6 5 6 6 5 5 4 4 4 5 7 8 7 6 6 6 6 6 6 6 5 5 6 6 6 6 6 6 6 7 6 4 4 4 3 3 4 3 4 4 4 5 5 5 9 9 8 5 4
10 9 8 4 4 7 3 5 6 6 5 6 6 5 5 6 4 5 4 4 4 4 4 3 2 3 5 6 7 6 6 5 5 5 5 6 5 5 5 5 6 6 6 5 5 5 4 3 4 4 5 4 4 4 4 5 6 6 6 6 4 6 7
5 7 8 8 3 7 6 5 5 5 5 6 5 6 7 7 4 5 5 5 4 4 5 4 3 2 2 5 6 6 6 6 5 4 4 4 5 6 6 5 5 5 5 5 5 4 4 4 4 4 1 3 4 5 6 5 6 6 6 5 7 6 5
3 5 9 10 9 6 7 6 6 6 5 5 5 7 7 8 8 7 5 5 5 4 5 4 2 2 3 4 4 7 8 8 8 6 5 4 4 5 5 4 3 4 5 7 7 6 6 7 6 5 1 4 5 6 5 4 6 7 6 7 6 3 5
3 4 6 10 12 9 6 6 6 5 6 7 8 7 7 7 8 8 7 5 5 4 4 2 2 3 2 3 4 4 5 7 7 8 7 6 4 3 4 4 2 3 6 7 8 9 10 6 3 5 6 6 6 5 6 6 5 6 6 7 7 7 6
4 4 7 7 6 9 7 6 4 5 7 8 9 8 8 8 6 6 7 7 6 4 3 2 5 3 2 4 5 4 5 4 5 7 7 7 6 5 6 5 4 6 6 6 5 8 8 9 9 9 8 7 7 7 7 6 4 5 5 4 3 5 7
6 4 5 7 6 2 3 5 7 6 9 8 7 7 9 8 7 6 6 6 6 4 3 4 5 3 4 7 6 6 5 5 5 6 5 6 6 7 6 6 4 4 5 5 2 4 7 10 12 13 15 14 15 15 9 4 3 3 4 5 4 4 5
8 10 7 4 4 5 5 6 1 9 9 8 7 9 8 8 7 4 5 7 5 3 3 6 5 4 5 8 10 8 6 5 6 5 6 7 7 7 6 6 6 6 5 8 3 3 3 7 9 13 14 16 16 16 16 16 14 6 2 4 5 4 1
8 10 6 5 6 7 6 9 4 3 9 8 9 9 8 8 6 5 4 6 6 4 4 8 7 5 6 11 14 11 7 8 7 7 7 7 7 7 5 6 7 6 5 5 5 4 5 7 7 9 9 8 8 11 13 14 13 14 10 7 6 6 3
8 3 5 6 6 6 9 9 6 1 8 8 9 9 8 8 6 5 4 4 7 6 5 9 7 7 10 15 16 12 9 9 10 10 9 8 8 8 6 7 8 7 6 6 6 4 6 7 8 8 8 8 7 7 8 8 7 6 5 5 5 4 3
9 10 5 9 7 9 8 10 11 3 9 8 8 9 7 7 7 6 4 4 7 7 6 12 8 8 13 16 16 10 10 11 11 10 9 8 7 7 6 6 7 8 7 7 8 11 8 7 8 8 7 5 5 6 7 4 5 6 4 4 4 3 2
11 11 10 7 9 8 9 9 12 6 10 8 8 8 8 7 6 6 6 6 8 7 7 11 10 10 14 17 13 10 10 10 10 11 9 7 7 7 7 6 6 7 8 7 8 11 10 11 8 7 6 5 4 5 6 5 4 6 7 6 7 5 4
12 11 12 11 8 9 9 10 9 8 10 9 9 7 8 9 9 8 9 9 7 8 8 11 12 9 12 13 14 11 9 11 10 10 9 8 7 8 8 12 8 7 8 6 10 11 10 9 8 6 6 6 6 6 6 5 3 2 4 4 6 6 6
13 14 15 12 10 8 10 11 10 8 10 9 8 6 8 10 10 9 9 8 13 11 8 11 15 13 10 12 12 10 10 10 11 8 8 8 6 6 7 8 11 9 7 7 12 12 12 9 8 6 5 7 7 7 4 5 7 9 10 10 10 11 10
13 13 13 13 11 8 8 11 12 10 10 8 8 8 9 10 12 10 9 10 11 10 11 10 13 16 14 12 9 10 9 12 11 9 6 7 7 6 6 5 7 9 9 9 9 10 11 10 8 5 6 7 6 4 3 3 4 5 5 5 6 6 6
12 13 12 11 11 10 8 10 10 10 11 10 8 10 11 10 11 11 10 11 12 12 11 10 12 18 17 15 13 7 7 9 9 9 8 7 6 6 6 6 4 7 9 9 10 10 10 10 8 6 6 5 3 0 2 4 5 6 4 4 5 5 7
11 10 10 12 12 10 10 11 9 9 9 9 10 11 11 10 11 11 10 10 11 11 12 16 10 15 17 16 14 12 7 7 6 9 9 7 6 6 5 4 4 5 7 8 8 9 9 8 7 5 5 5 4 5 2 2 1 3 4 6 6 7 7
10 9 10 10 11 11 10 10 10 9 8 8 10 11 10 9 10 10 10 9 9 10 9 10 15 13 17 17 15 14 12 8 8 7 8 8 6 5 3 3 4 6 8 8 9 9 9 8 7 5 6 6 5 4 3 4 4 6 7 7 7 7 7
9 9 9 8 9 9 8 8 9 8 8 9 9 9 8 7 8 9 9 8 8 8 8 7 10 14 14 17 16 15 14 14 12 8 8 7 5 5 5 5 5 7 9 11 13 12 11 10 8 8 7 7 7 5 6 7 8 7 7 8 8 7 7
Wind_Direction
180 178 175 171 168 172 172 175 168 171 172 168 165 169 142 189 204 186 177 172 177 166 160 170 172 170 165 174 174 177 167 177 178 175 176 173 177 203 193 160 66 118 143 69 109 145 132 139 164 358 150 152 184 167 149 147 147 139 129 123 120 117 109
159 155 153 158 166 166 178 171 172 171 169 172 167 167 171 179 188 189 170 150 167 182 182 166 159 166 175 171 171 173 180 183 185 183 165 179 178 176 138 66 108 127 119 101 124 108 138 135 111 166 144 12 58 136 138 140 143 135 136 139 135 127 120
142 137 150 165 175 170 176 177 174 172 170 171 176 168 170 177 183 184 150 156 171 181 192 173 157 164 177 182 183 181 175 170 183 176 181 172 169 168 172 149 129 115 96 102 105 114 68 50 157 172 168 148 147 191 134 150 149 139 135 133 124 126 126
152 148 154 165 173 173 177 177 178 179 174 177 176 182 178 180 160 169 151 160 172 184 197 184 178 174 178 183 181 171 175 170 177 177 175 165 159 165 173 162 157 164 168 161 165 162 147 134 99 111 138 162 154 145 192 169 143 143 139 130 132 135 136
159 161 165 166 172 179 178 179 175 167 187 185 182 182 193 160 149 180 145 180 191 193 199 194 187 173 170 173 171 176 176 173 170 171 169 166 169 170 173 174 169 160 143 146 163 156 151 159 147 146 144 130 106 124 140 100 100 142 145 140 147 147 142
171 166 168 168 175 179 178 175 172 185 178 184 189 185 197 153 162 158 184 191 196 198 195 191 187 171 164 164 168 173 167 173 178 173 172 180 173 170 182 172 150 151 155 152 148 151 138 133 135 133 139 135 137 141 137 137 123 53 73 131 153 152 147
183 171 171 170 174 179 177 180 184 184 181 188 187 189 161 114 179 185 185 199 199 188 187 186 180 168 161 162 162 168 172 176 171 170 173 173 174 175 157 153 165 157 151 153 151 140 145 138 150 147 143 102 133 144 134 95 131 117 9 38 39 97 141
188 180 176 171 169 172 182 181 185 180 183 192 190 183 118 144 175 184 187 190 188 195 187 187 183 156 150 148 156 166 165 159 161 160 165 166 170 170 169 168 159 154 154 161 154 161 156 162 155 157 145 137 116 122 138 92 152 155 154 75 105 105 310
201 185 166 160 172 176 177 178 180 185 192 187 184 172 130 162 166 177 186 191 188 197 200 188 179 160 153 148 150 156 159 150 147 158 168 168 171 172 171 156 147 176 167 166 170 160 165 157 150 153 147 146 147 153 130 135 134 71 155 134 97 163 175
196 198 180 173 174 177 175 174 176 184 183 180 178 176 150 158 162 166 182 191 197 207 202 185 171 161 148 149 153 154 153 151 153 162 164 171 175 167 163 166 176 172 180 174 165 159 148 138 152 160 162 156 159 147 158 171 190 140 218 226 147 205 170
236 207 194 177 168 168 179 180 168 172 184 179 168 168 160 156 161 164 173 188 203 200 202 176 156 160 147 152 158 160 150 150 150 149 169 167 168 166 159 164 164 171 172 173 182 162 152 152 149 166 169 166 158 163 165 171 202 194 176 223 182 162 175
256 217 204 180 164 173 182 182 181 181 171 166 160 165 166 156 157 163 169 180 192 196 194 166 146 155 159 149 155 155 146 149 152 157 168 165 168 159 162 168 165 167 172 185 180 161 148 156 153 155 163 149 173 161 159 140 137 243 176 186 226 190 167
260 244 202 180 173 177 180 179 178 169 174 164 166 162 162 162 160 160 164 171 182 190 192 157 146 156 159 159 151 147 152 150 153 160 165 168 160 163 161 169 175 169 173 174 184 182 159 167 159 145 155 165 165 131 139 155 164 189 207 189 178 161 175
359 324 293 196 172 170 172 175 175 171 151 163 157 155 162 166 165 163 160 166 175 186 186 157 153 152 158 153 142 147 153 159 160 162 159 170 168 161 167 176 183 181 164 173 192 185 166 162 159 154 152 151 160 160 148 146 150 175 177 77 134 168 156
135 92 301 246 171 164 163 170 166 151 157 163 155 154 161 163 165 163 160 165 173 182 180 164 158 156 160 157 155 156 166 165 165 163 164 175 173 169 165 174 196 195 181 181 186 188 176 161 160 155 171 162 163 176 178 143 161 154 198 171 111 86 150
135 145 230 255 193 164 165 166 159 153 155 163 162 160 162 164 166 163 160 163 169 176 179 168 163 166 162 161 168 172 171 171 168 168 171 178 177 171 171 183 200 198 183 188 196 200 172 175 170 175 177 173 172 182 188 178 147 171 181 203 155 151 174
139 136 170 236 204 167 167 164 158 156 160 160 168 175 169 166 166 165 158 162 166 174 176 165 164 174 175 163 171 178 172 174 174 179 175 173 178 182 185 182 200 193 184 188 200 201 190 168 179 180 173 180 171 184 187 182 179 159 175 152 206 181 184
127 97 101 280 236 168 163 157 161 156 155 163 169 155 159 155 157 164 164 168 163 167 178 169 165 171 180 172 172 174 177 175 176 183 180 177 180 183 180 189 189 184 178 184 198 193 186 172 175 169 180 174 179 186 169 178 182 169 146 181 186 183 170
144 151 125 279 282 219 155 159 157 156 161 162 155 143 151 161 160 168 170 164 155 141 145 173 177 175 174 173 172 178 180 183 184 180 178 180 182 181 183 189 180 182 176 183 189 189 185 190 169 174 190 185 173 175 171 162 157 180 168 183 161 155 171
159 155 138 129 296 291 182 154 156 168 171 157 147 137 131 127 129 120 110 104 99 102 93 82 101 163 178 168 171 176 182 187 189 190 180 180 182 180 182 182 180 180 178 171 163 180 180 184 168 180 190 188 170 161 179 175 160 174 172 154 168 183 177
134 146 140 123 127 259 226 158 171 174 162 150 133 131 134 126 103 99 98 94 83 90 95 76 49 36 116 156 162 174 179 179 189 199 186 179 169 177 180 182 178 172 161 161 159 171 149 154 158 161 204 145 161 158 178 171 157 157 156 165 170 180 192
99 141 147 144 152 224 225 172 172 170 150 127 128 131 130 121 114 99 85 95 88 72 80 73 52 18 80 118 149 161 169 174 177 169 174 175 169 172 173 148 134 145 157 161 162 163 166 154 146 134 167 147 151 159 149 159 174 157 167 167 189 176 152
136 149 160 162 168 181 216 175 170 152 137 133 133 129 120 117 119 122 115 96 89 83 77 69 22 14 330 123 118 115 131 158 158 151 154 155 150 104 73 73 63 113 138 141 142 146 141 144 121 128 153 135 132 133 142 145 155 160 154 162 184 170 174
141 163 172 179 177 162 187 171 139 135 133 131 129 126 119 114 108 113 117 117 102 86 66 28 7 30 62 100 108 112 115 122 137 140 144 149 133 101 83 76 79 68 58 45 67 91 105 106 101 99 97 103 117 127 129 123 146 155 142 139 154 160 179
139 188 171 180 160 167 157 131 139 141 131 125 120 116 112 110 110 111 110 102 93 86 75 13 5 30 85 95 104 107 110 112 123 127 127 116 110 105 98 86 65 63 74 90 62 46 66 73 74 71 70 68 65 59 63 109 143 99 110 120 118 144 126
172 179 186 186 161 118 112 73 98 138 130 124 118 112 111 109 103 96 105 102 85 61 62 6 12 35 74 98 104 99 85 100 105 100 100 100 98 101 100 91 70 45 38 48 57 73 86 72 71 80 82 73 62 64 64 57 50 62 129 108 137 144 105
169 181 181 142 141 140 136 132 163 163 119 114 110 104 101 97 92 84 81 93 88 53 42 352 1 37 77 93 96 94 91 86 82 80 82 88 91 82 81 95 88 63 32 34 32 49 81 81 76 72 70 67 66 54 55 54 56 54 57 64 68 68 15
7 346 125 123 129 130 135 118 70 351 111 114 111 106 106 100 88 82 71 81 83 56 19 354 358 48 79 95 94 93 90 86 81 77 70 73 79 85 86 89 90 88 65 52 32 51 81 84 84 78 75 70 67 64 55 49 46 48 59 75 85 98 54
33 20 356 108 113 111 107 108 106 104 93 87 87 92 76 78 84 75 57 63 78 57 21 6 9 71 100 100 95 90 91 87 87 81 75 70 73 73 74 79 88 79 72 64 40 57 75 89 79 80 77 70 67 60 52 45 74 59 60 77 80 74 65
26 37 9 40 80 80 87 94 102 101 95 87 93 87 90 81 71 70 61 51 63 61 35 8 11 84 105 105 96 98 93 91 87 85 76 72 72 71 64 60 68 77 67 56 35 56 67 86 81 79 84 79 72 59 34 9 30 51 49 79 63 59 71
31 36 40 19 44 72 80 79 73 96 94 97 85 82 95 85 69 59 56 51 40 57 42 18 17 56 97 105 112 108 105 100 92 92 87 70 71 68 61 62 66 67 67 55 41 50 52 75 77 77 78 73 53 41 15 358 9 68 76 111 60 50 54
31 34 39 28 9 53 77 82 80 74 88 83 82 90 81 81 74 59 53 55 46 48 39 26 21 23 60 100 109 112 112 108 102 95 98 89 74 77 64 49 54 61 68 60 53 49 48 64 77 69 82 79 65 48 354 350 13 9 7 12 9 9 10
44 40 36 32 14 14 58 80 83 81 75 70 78 72 73 75 75 66 58 54 50 42 38 33 24 23 30 34 88 118 119 115 114 113 102 99 92 70 67 62 53 56 62 63 64 62 57 61 80 74 68 71 71 43 343 14 27 26 14 19 357 6 0
38 44 44 43 28 11 26 63 72 76 85 81 70 73 70 74 74 69 61 57 55 46 35 28 27 29 23 26 27 65 104 108 119 115 111 96 88 87 72 64 60 46 49 51 55 55 58 56 66 73 72 81 80 113 25 36 12 17 20 11 10 10 13
34 38 40 51 49 27 25 43 56 68 75 83 83 75 71 69 71 68 60 56 55 50 35 29 24 27 27 22 26 31 70 79 100 114 102 99 92 84 86 84 66 46 54 59 60 63 64 72 70 76 83 109 105 70 60 60 50 27 32 31 28 32 25
36 34 36 38 56 46 28 42 46 53 69 82 81 79 73 72 73 71 66 56 53 50 40 31 28 33 28 25 20 29 45 62 69 76 92 91 86 86 77 61 60 53 68 70 69 69 71 65 62 60 70 70 70 93 89 64 54 48 44 41 43 41 34
48 45 41 41 48 58 48 47 53 54 56 62 68 74 72 76 74 71 72 64 54 46 40 29 28 36 38 31 22 24 31 40 51 71 78 86 75 64 51 43 34 45 69 73 74 73 68 66 69 69 70 66 59 57 60 59 55 56 56 48 44 35 26